User: anonymous   Login
Location: Karlovy Vary
(50.2170°N, 12.9000°E)
Time: 13:24:06
(UTC+02:00)
Language:

ISS - Orbit

View from above orbital plane
View from above orbital plane
View from above satellite
View from above satellite

Ground track
Ground track

The orbit data is extracted from the following two-line orbital elements,

1 25544U 98067A   16179.37222213  .00004634  00000-0  75659-4 0  9999
2 25544  51.6449   7.2249 0000949  32.1367  32.3864 15.54692450  6574
Epoch (UTC): 27 June 2016 08:55:59
Eccentricity: 0.0000949
inclination: 51.6449°
perigee height: 402 km
apogee height: 403 km
right ascension of ascending node: 7.2249°
argument of perigee: 32.1367°
revolutions per day: 15.54692450
mean anomaly at epoch: 32.3864°
orbit number at epoch: 657

The dashed part of the orbit path shows where the satellite is in the earth's shadow,  

DLR